User: anonymous   Login
Location: Caltech
(34.1382°N, 118.1253°W)
Time: 15:32:17
(UTC-07:00)
Language:

Lacrosse 5 rocket - Orbit

View from above orbital plane
View from above orbital plane
View from above satellite
View from above satellite

Ground track
Ground track

The orbit data is extracted from the following two-line orbital elements,

1 28647U 05016B   16146.89844053 0.00001200  00000-0  73593-4 0    05
2 28647  56.9940 147.2672 0114921 349.6789  10.3210 15.04279378    08
Epoch (UTC): 25 May 2016 21:33:45
Eccentricity: 0.0114921
inclination: 56.9940°
perigee height: 474 km
apogee height: 633 km
right ascension of ascending node: 147.2672°
argument of perigee: 349.6789°
revolutions per day: 15.04279378
mean anomaly at epoch: 10.3210°
orbit number at epoch: 0

The dashed part of the orbit path shows where the satellite is in the earth's shadow,  

DLR